This is the latest recevied weather packets stored in our database for station/object AI4QX-5. If no packets are shown the sender has not sent any weather packets the latest 10 day(s).
| Time | Temp. | Humidity | Pressure | Rain* | Wind** | Luminosity | Snow |
|---|---|---|---|---|---|---|---|
| 1777921800 | 28.89° C | 39% | 1014.6 hPa | 0 mm | - | - | - |
| 1777921200 | 28.89° C | 39% | 1014.8 hPa | 0 mm | - | - | - |
| 1777920600 | 28.89° C | 39% | 1014.7 hPa | 0 mm | - | - | - |
| 1777920000 | 28.89° C | 39% | 1014.8 hPa | 0 mm | - | - | - |
| 1777919400 | 28.33° C | 39% | 1015 hPa | 0 mm | - | - | - |
| 1777918800 | 28.33° C | 39% | 1015.1 hPa | 0 mm | - | - | - |
| 1777918200 | 28.33° C | 40% | 1015.1 hPa | 0 mm | - | - | - |
| 1777917600 | 28.33° C | 39% | 1015.2 hPa | 0 mm | - | - | - |
| 1777917000 | 28.33° C | 40% | 1015.2 hPa | 0 mm | - | - | - |
| 1777916400 | 27.78° C | 40% | 1015.2 hPa | 0 mm | - | - | - |
| 1777915800 | 27.78° C | 40% | 1015.3 hPa | 0 mm | - | - | - |
| 1777915200 | 27.78° C | 40% | 1015.4 hPa | 0 mm | - | - | - |
| 1777914600 | 27.78° C | 43% | 1015.4 hPa | 0 mm | - | - | - |
| 1777914000 | 27.22° C | 41% | 1015.7 hPa | 0 mm | - | - | - |
| 1777913400 | 27.22° C | 41% | 1015.8 hPa | 0 mm | - | - | - |
| 1777912800 | 27.22° C | 41% | 1015.9 hPa | 0 mm | - | - | - |
| 1777912200 | 27.22° C | 41% | 1015.9 hPa | 0 mm | - | - | - |
| 1777911600 | 27.22° C | 41% | 1015.8 hPa | 0 mm | - | - | - |
| 1777911000 | 27.22° C | 41% | 1015.7 hPa | 0 mm | - | - | - |
| 1777910400 | 27.22° C | 41% | 1015.7 hPa | 0 mm | - | - | - |
| 1777909801 | 26.67° C | 41% | 1015.7 hPa | 0 mm | - | - | - |
| 1777909200 | 26.67° C | 43% | 1015.8 hPa | 0 mm | - | - | - |
| 1777908600 | 26.67° C | 45% | 1015.7 hPa | 0 mm | - | - | - |
| 1777908051 | 26.11° C | 46% | 1015.8 hPa | 0 mm | - | - | - |
| 1777907400 | 26.11° C | 47% | 1016 hPa | 0 mm | - | - | - |
* Rain latest hour (hover to see other rain measurements)
** Current wind speed in m/s (hover to see current wind gust speed)